"startDT [UTC]","vpos","CH4 [ppm]","stdev(CH4) [ppm]","CO2 [ppm]","stdev(CO2) [ppm]","H2O_reported [%]","stdev(H2O_reported)","CavityPressure [torr]","CavityTemp [C]","OutletValve","CH4_dry [ppm]","CO2_dry [ppm]","DasTemp [C]","EtalonTemp [C]","WarmBoxTemp [C]","MPVPosition","T_ECpre [C]","T_EC1 [C]","T_EC2 [C]","p_inlet [hPa]","p_in [hPa]","p_out [hPa]","T_inlet [C]","RH_inlet [%]","dwpt_inlet [C]","T_vent [C]","RH_vent [%]","dwpt_vent [C]","flow_vent [l min-1]","flow_inlet [l min-1]","dwpt_sample [C]","T_room [C]"
2015-05-14 00:00:00,0.0,1.90742,0.00037,404.718,0.028,0.3122,0.0015,139.996,45.000,34072.67600,1.91332,406.251,31.855,45.069,45.000,0.00,0.09,-272.72,-272.79,-4,977,-2,21.6,8.9,-12.7,21.3,9.2,-12.6,5.73,1.95,-10.0,25.8
2015-05-14 00:01:00,0.0,1.90752,0.00033,404.696,0.032,0.3138,0.0020,139.998,45.000,34070.42676,1.91347,406.236,31.873,45.069,45.000,0.00,0.09,-272.73,-272.78,-4,976,-2,21.6,9.0,-12.7,21.2,9.2,-12.6,5.73,1.96,-10.0,25.8
2015-05-14 00:02:00,0.0,1.90742,0.00027,404.713,0.024,0.3141,0.0012,139.997,45.000,34072.41850,1.91337,406.254,31.872,45.068,45.000,0.00,0.09,-272.72,-272.77,-4,976,-2,21.6,9.0,-12.7,21.3,9.2,-12.6,5.73,1.96,-10.0,25.8
2015-05-14 00:03:00,0.0,1.90746,0.00041,404.729,0.031,0.3123,0.0020,139.999,45.000,34071.80996,1.91339,406.263,31.875,45.068,45.000,0.00,0.09,-272.72,-272.77,-4,976,-2,21.6,8.9,-12.8,21.2,9.2,-12.7,5.73,1.96,-9.9,25.8
2015-05-14 00:04:00,0.0,1.90742,0.00035,404.708,0.037,0.3115,0.0017,139.999,45.000,34072.74557,1.91333,406.238,31.873,45.068,45.000,0.00,0.09,-272.73,-272.78,-4,976,-2,21.6,8.9,-12.8,21.3,9.1,-12.7,5.73,1.95,-10.0,25.8
2015-05-14 00:05:00,0.0,1.90718,0.00030,404.710,0.035,0.3134,0.0015,139.999,45.000,34073.43015,1.91312,406.247,31.874,45.069,45.000,0.00,0.09,-272.71,-272.77,-4,977,-2,21.6,9.0,-12.7,21.3,9.2,-12.6,5.73,1.95,-10.0,25.8
2015-05-14 00:06:00,0.0,1.90737,0.00032,404.672,0.030,0.3155,0.0017,140.002,45.000,34073.52144,1.91332,406.221,31.872,45.069,45.000,0.00,0.09,-272.72,-272.77,-4,976,-2,21.6,9.0,-12.6,21.3,9.2,-12.6,5.73,1.95,-9.9,25.7
2015-05-14 00:07:00,0.0,1.90745,0.00030,404.705,0.037,0.3155,0.0021,140.000,45.000,34073.85091,1.91342,406.253,31.871,45.069,45.000,0.00,0.09,-272.72,-272.78,-4,976,-2,21.6,9.0,-12.6,21.3,9.3,-12.5,5.73,1.95,-9.9,25.7
2015-05-14 00:08:00,0.0,1.90735,0.00040,404.675,0.033,0.3163,0.0028,140.001,45.000,34076.36935,1.91335,406.228,31.875,45.069,45.000,0.00,0.09,-272.72,-272.78,-4,976,-2,21.6,9.0,-12.6,21.2,9.3,-12.5,5.73,1.95,-10.0,25.7
2015-05-14 00:09:00,0.0,1.90746,0.00036,404.696,0.027,0.3146,0.0022,140.003,45.000,34076.49456,1.91340,406.240,31.875,45.069,45.000,0.00,0.09,-272.71,-272.78,-4,976,-2,21.6,9.0,-12.7,21.2,9.2,-12.6,5.73,1.95,-9.9,25.7
2015-05-14 00:10:00,0.0,1.90754,0.00035,404.676,0.024,0.3166,0.0015,140.001,45.000,34076.03518,1.91352,406.232,31.875,45.069,45.000,0.00,0.09,-272.72,-272.78,-4,976,-2,21.6,9.0,-12.6,21.2,9.3,-12.5,5.73,1.95,-9.9,25.8
2015-05-14 00:11:00,0.0,1.90720,0.00040,404.685,0.019,0.3174,0.0023,139.997,45.000,34075.60524,1.91326,406.242,31.875,45.069,45.000,0.00,0.09,-272.72,-272.78,-4,976,-2,21.6,9.1,-12.6,21.3,9.3,-12.5,5.73,1.94,-9.9,25.7
2015-05-14 00:12:00,0.0,1.90736,0.00038,404.661,0.031,0.3191,0.0019,140.002,45.000,34079.22703,1.91338,406.228,31.894,45.068,45.000,0.00,0.09,-272.72,-272.78,-4,976,-2,21.6,9.1,-12.5,21.2,9.3,-12.4,5.73,1.95,-9.9,25.8
2015-05-14 00:13:00,0.0,1.90721,0.00023,404.673,0.032,0.3181,0.0021,140.000,45.000,34078.49543,1.91323,406.234,31.931,45.069,45.000,0.00,0.09,-272.72,-272.77,-4,976,-2,21.6,9.1,-12.5,21.3,9.3,-12.4,5.73,1.94,-9.9,25.8
2015-05-14 00:14:00,0.0,1.90745,0.00039,404.687,0.034,0.3156,0.0022,139.999,45.000,34077.01882,1.91344,406.237,31.939,45.068,45.000,0.00,0.09,-272.72,-272.78,-4,976,-2,21.6,9.0,-12.6,21.2,9.3,-12.5,5.73,1.94,-9.9,25.7
2015-05-14 00:15:00,0.0,1.90767,0.00032,404.704,0.035,0.3150,0.0015,139.998,45.000,34073.71881,1.91361,406.250,31.943,45.068,45.000,0.00,0.09,-272.72,-272.78,-4,976,-2,21.6,9.0,-12.6,21.3,9.3,-12.5,5.73,1.94,-9.9,25.8
2015-05-14 00:16:00,0.0,1.90775,0.00034,404.722,0.036,0.3182,0.0019,139.997,45.000,34072.78030,1.91376,406.283,31.945,45.068,45.000,0.00,0.09,-272.72,-272.77,-4,976,-2,21.6,9.1,-12.5,21.3,9.3,-12.4,5.73,1.94,-9.9,25.8
2015-05-14 00:17:00,0.0,1.90756,0.00040,404.686,0.036,0.3192,0.0021,139.999,45.000,34073.73763,1.91362,406.254,31.960,45.068,45.000,0.00,0.09,-272.72,-272.78,-4,975,-2,21.6,9.1,-12.5,21.3,9.4,-12.4,5.73,1.94,-9.9,25.8
2015-05-14 00:18:00,0.0,1.90737,0.00039,404.691,0.030,0.3208,0.0022,139.999,45.000,34073.95827,1.91343,406.264,31.994,45.068,45.000,0.00,0.09,-272.73,-272.78,-4,976,-2,21.6,9.1,-12.4,21.3,9.4,-12.4,5.73,1.94,-9.9,25.8
2015-05-14 00:19:00,0.0,1.90750,0.00025,404.693,0.035,0.3221,0.0025,140.000,45.000,34073.34801,1.91361,406.277,32.000,45.068,45.000,0.00,0.09,-272.72,-272.77,-4,975,-2,21.6,9.2,-12.4,21.3,9.4,-12.3,5.73,1.95,-9.9,25.8
2015-05-14 00:20:00,0.0,1.90746,0.00030,404.685,0.031,0.3226,0.0014,139.998,45.000,34071.41030,1.91360,406.269,32.001,45.068,45.000,0.00,0.09,-272.72,-272.78,-4,976,-2,21.6,9.2,-12.4,21.3,9.4,-12.3,5.73,1.95,-9.9,25.9
2015-05-14 00:21:00,0.0,1.90739,0.00044,404.701,0.023,0.3204,0.0024,139.996,45.000,34072.43006,1.91343,406.276,32.004,45.068,45.000,0.00,0.09,-272.72,-272.78,-4,975,-2,21.6,9.1,-12.4,21.3,9.4,-12.3,5.73,1.95,-9.9,25.8
2015-05-14 00:22:00,0.0,1.90755,0.00037,404.699,0.032,0.3185,0.0014,139.997,45.000,34071.51478,1.91360,406.262,32.000,45.068,45.000,0.00,0.09,-272.72,-272.78,-4,976,-2,21.6,9.1,-12.5,21.3,9.3,-12.4,5.73,1.95,-9.9,25.8
2015-05-14 00:23:00,0.0,1.90756,0.00036,404.712,0.037,0.3195,0.0025,140.003,45.000,34072.89364,1.91357,406.281,32.002,45.068,45.000,0.00,0.09,-272.72,-272.78,-4,975,-2,21.6,9.1,-12.5,21.3,9.3,-12.4,5.73,1.96,-9.9,25.8
2015-05-14 00:24:00,0.0,1.90748,0.00036,404.692,0.027,0.3191,0.0018,140.001,45.000,34072.75089,1.91355,406.260,32.008,45.069,45.000,0.00,0.09,-272.72,-272.78,-4,976,-2,21.6,9.1,-12.5,21.3,9.3,-12.4,5.73,1.96,-9.9,25.8
2015-05-14 00:25:00,0.0,1.90755,0.00027,404.701,0.032,0.3160,0.0016,140.003,45.000,34072.37074,1.91351,406.252,32.002,45.068,45.000,0.00,0.09,-272.72,-272.78,-4,976,-2,21.6,9.0,-12.6,21.3,9.3,-12.5,5.73,1.96,-9.9,25.8
2015-05-14 00:26:00,0.0,1.90764,0.00040,404.733,0.025,0.3134,0.0013,139.998,45.000,34070.56723,1.91358,406.271,32.000,45.069,45.000,0.00,0.09,-272.71,-272.77,-4,975,-2,21.6,8.9,-12.7,21.3,9.2,-12.6,5.73,1.97,-9.9,25.8
2015-05-14 00:27:00,0.0,1.90760,0.00026,404.766,0.021,0.3129,0.0021,139.997,45.000,34067.94301,1.91353,406.302,32.000,45.069,45.000,0.00,0.09,-272.72,-272.78,-4,976,-2,21.6,8.9,-12.7,21.3,9.2,-12.6,5.73,1.97,-9.9,25.8
2015-05-14 00:28:00,0.0,1.90784,0.00032,404.731,0.035,0.3133,0.0016,139.998,45.000,34069.60617,1.91378,406.268,32.000,45.069,45.000,0.00,0.09,-272.73,-272.78,-4,975,-2,21.6,8.9,-12.7,21.3,9.2,-12.6,5.73,1.96,-9.9,25.9
2015-05-14 00:29:00,0.0,1.90767,0.00036,404.721,0.033,0.3169,0.0020,139.999,45.000,34070.31377,1.91369,406.277,32.003,45.069,45.000,0.00,0.09,-272.72,-272.78,-4,976,-2,21.6,9.0,-12.6,21.3,9.3,-12.5,5.73,1.96,-9.9,25.9
2015-05-14 00:30:00,0.0,1.90767,0.00044,404.719,0.027,0.3196,0.0016,140.002,45.000,34073.74244,1.91372,406.287,32.001,45.069,45.000,0.00,0.09,-272.72,-272.77,-4,975,-2,21.6,9.1,-12.5,21.3,9.3,-12.4,5.73,1.97,-9.9,25.9
2015-05-14 00:31:00,0.0,1.90753,0.00033,404.711,0.030,0.3197,0.0021,139.998,45.000,34072.93066,1.91359,406.280,32.004,45.069,45.000,0.00,0.09,-272.73,-272.78,-4,976,-2,21.6,9.1,-12.5,21.3,9.3,-12.4,5.73,1.96,-9.9,25.8
2015-05-14 00:32:00,0.0,1.90751,0.00036,404.700,0.034,0.3175,0.0024,139.999,45.000,34073.29988,1.91350,406.260,32.007,45.069,45.000,0.00,0.09,-272.72,-272.78,-4,976,-2,21.6,9.0,-12.6,21.3,9.3,-12.4,5.73,1.96,-9.9,25.8
2015-05-14 00:33:00,0.0,1.90746,0.00037,404.726,0.040,0.3157,0.0021,139.999,45.000,34074.71305,1.91347,406.276,32.035,45.069,45.000,0.00,0.09,-272.72,-272.78,-4,976,-2,21.6,9.0,-12.6,21.3,9.3,-12.5,5.73,1.96,-9.9,25.8
2015-05-14 00:34:00,0.0,1.90731,0.00041,404.721,0.025,0.3172,0.0025,139.999,45.000,34075.36558,1.91328,406.279,32.063,45.068,45.000,0.00,0.09,-272.72,-272.78,-4,976,-2,21.6,9.0,-12.6,21.3,9.3,-12.5,5.73,1.95,-9.9,25.8
2015-05-14 00:35:00,0.0,1.90734,0.00041,404.697,0.029,0.3202,0.0015,140.000,45.000,34073.39775,1.91344,406.268,32.065,45.068,45.000,0.00,0.09,-272.73,-272.78,-4,976,-2,21.6,9.1,-12.5,21.3,9.3,-12.4,5.73,1.95,-9.9,25.9
2015-05-14 00:36:00,0.0,1.90734,0.00037,404.706,0.026,0.3209,0.0016,140.002,45.000,34075.23645,1.91338,406.282,32.063,45.068,45.000,0.00,0.09,-272.71,-272.78,-4,976,-2,21.6,9.1,-12.4,21.3,9.4,-12.4,5.73,1.94,-9.9,25.9
2015-05-14 00:37:00,0.0,1.90762,0.00034,404.743,0.033,0.3180,0.0031,139.997,45.000,34072.58400,1.91364,406.305,32.070,45.068,45.000,0.00,0.09,-272.72,-272.78,-4,976,-2,21.6,9.0,-12.6,21.3,9.3,-12.4,5.73,1.94,-9.9,25.9
2015-05-14 00:38:00,0.0,1.90753,0.00027,404.777,0.031,0.3093,0.0021,139.999,45.000,34073.59533,1.91339,406.296,32.076,45.068,45.000,0.00,0.09,-272.72,-272.78,-4,976,-2,21.6,8.8,-12.9,21.3,9.1,-12.7,5.73,1.93,-9.9,25.8
2015-05-14 00:39:00,0.0,1.90769,0.00032,404.787,0.033,0.3095,0.0021,139.998,45.000,34071.47709,1.91353,406.305,32.100,45.068,45.000,0.00,0.09,-272.72,-272.77,-4,976,-2,21.7,8.8,-12.9,21.3,9.1,-12.8,5.73,1.94,-9.8,25.8
2015-05-14 00:40:00,0.0,1.90775,0.00026,404.778,0.040,0.3119,0.0020,140.000,45.000,34072.14638,1.91367,406.309,32.102,45.068,44.999,0.00,0.09,-272.72,-272.78,-4,976,-2,21.6,8.9,-12.8,21.3,9.1,-12.7,5.73,1.93,-9.9,25.8
2015-05-14 00:41:00,0.0,1.90752,0.00027,404.767,0.030,0.3145,0.0014,139.997,45.000,34072.99428,1.91349,406.313,32.119,45.068,45.000,0.00,0.09,-272.72,-272.78,-4,976,-2,21.6,8.9,-12.7,21.3,9.2,-12.6,5.73,1.94,-9.8,25.9
2015-05-14 00:42:00,0.0,1.90758,0.00038,404.752,0.045,0.3164,0.0018,140.000,45.000,34073.57191,1.91357,406.304,32.096,45.068,45.000,0.00,0.09,-272.72,-272.77,-5,976,-2,21.6,9.0,-12.6,21.3,9.2,-12.5,5.73,1.94,-9.8,25.9
2015-05-14 00:43:00,0.0,1.90739,0.00036,404.757,0.023,0.3112,0.0017,140.002,45.000,34075.18027,1.91328,406.285,32.098,45.068,45.000,0.00,0.09,-272.72,-272.77,-5,976,-2,21.6,8.9,-12.8,21.3,9.2,-12.6,5.73,1.94,-9.8,25.9
2015-05-14 00:44:00,0.0,1.90753,0.00040,404.764,0.031,0.3150,0.0028,140.002,45.000,34074.72866,1.91350,406.308,32.069,45.068,45.000,0.00,0.09,-272.72,-272.78,-4,976,-2,21.6,8.9,-12.7,21.3,9.2,-12.6,5.73,1.95,-9.8,25.9
2015-05-14 00:45:00,0.0,1.90733,0.00034,404.746,0.033,0.3150,0.0017,139.999,45.000,34075.07689,1.91330,406.292,32.067,45.069,45.000,0.00,0.09,-272.72,-272.78,-5,975,-2,21.6,9.0,-12.7,21.3,9.2,-12.5,5.73,1.96,-9.8,25.8
2015-05-14 00:46:00,0.0,1.90739,0.00031,404.748,0.028,0.3085,0.0019,140.001,45.000,34075.70224,1.91322,406.265,32.084,45.069,45.000,0.00,0.09,-272.71,-272.77,-4,976,-2,21.7,8.8,-12.9,21.3,9.1,-12.7,5.73,1.97,-9.8,25.8
2015-05-14 00:47:00,0.0,1.90756,0.00032,404.739,0.019,0.3092,0.0020,140.002,45.000,34075.59472,1.91342,406.255,32.082,45.069,45.000,0.00,0.09,-272.72,-272.78,-4,975,-2,21.7,8.8,-12.8,21.3,9.1,-12.7,5.73,1.97,-9.8,25.8
2015-05-14 00:48:00,0.0,1.90751,0.00039,404.731,0.037,0.3181,0.0025,139.997,45.000,34075.70394,1.91348,406.292,32.082,45.069,45.000,0.00,0.09,-272.73,-272.78,-4,976,-2,21.7,9.0,-12.6,21.3,9.2,-12.5,5.73,1.96,-9.8,25.8
2015-05-14 00:49:00,0.0,1.90759,0.00030,404.755,0.041,0.3178,0.0019,140.000,45.000,34072.82866,1.91364,406.316,32.081,45.068,45.000,0.00,0.09,-272.72,-272.77,-5,976,-2,21.6,9.0,-12.6,21.3,9.3,-12.4,5.73,1.96,-9.8,25.8
2015-05-14 00:50:00,0.0,1.90748,0.00025,404.759,0.032,0.3159,0.0017,140.004,45.000,34074.76713,1.91347,406.311,32.079,45.068,45.000,0.00,0.09,-272.72,-272.78,-4,975,-2,21.7,9.0,-12.6,21.3,9.3,-12.5,5.73,1.96,-9.8,25.8
2015-05-14 00:51:00,0.0,1.90723,0.00042,404.733,0.025,0.3204,0.0017,140.002,45.000,34078.80027,1.91331,406.305,32.074,45.068,45.000,0.00,0.09,-272.72,-272.78,-5,976,-2,21.7,9.1,-12.5,21.3,9.3,-12.4,5.73,1.96,-9.8,25.8
2015-05-14 00:52:00,0.0,1.90714,0.00037,404.704,0.042,0.3218,0.0024,140.001,45.000,34080.16216,1.91322,406.285,32.087,45.068,45.000,0.00,0.09,-272.72,-272.78,-4,975,-2,21.7,9.1,-12.4,21.3,9.4,-12.3,5.73,1.96,-9.8,25.8
2015-05-14 00:53:00,0.0,1.90710,0.00037,404.701,0.026,0.3229,0.0017,140.000,45.000,34077.93325,1.91321,406.286,32.083,45.068,45.000,0.00,0.09,-272.72,-272.78,-5,976,-2,21.7,9.1,-12.4,21.3,9.4,-12.3,5.73,1.96,-9.8,25.9
2015-05-14 00:54:00,0.0,1.90749,0.00030,404.699,0.022,0.3265,0.0034,140.001,45.000,34074.99307,1.91369,406.303,32.069,45.069,45.000,0.00,0.09,-272.72,-272.78,-4,975,-2,21.7,9.2,-12.3,21.3,9.5,-12.2,5.73,1.95,-9.8,25.9
2015-05-14 00:55:00,0.0,1.90735,0.00038,404.714,0.030,0.3239,0.0017,140.000,45.000,34074.92248,1.91343,406.303,32.063,45.069,45.000,0.00,0.09,-272.72,-272.78,-5,976,-2,21.7,9.2,-12.3,21.3,9.5,-12.2,5.73,1.95,-9.8,25.9
2015-05-14 00:56:00,0.0,1.90739,0.00040,404.710,0.028,0.3213,0.0035,140.002,45.000,34077.75917,1.91350,406.288,32.063,45.069,45.000,0.00,0.09,-272.72,-272.77,-5,976,-2,21.7,9.1,-12.5,21.3,9.4,-12.3,5.73,1.94,-9.8,25.9
2015-05-14 00:57:00,0.0,1.90743,0.00030,404.723,0.020,0.3234,0.0036,139.996,45.000,34075.71056,1.91356,406.310,32.064,45.069,45.000,0.00,0.09,-272.72,-272.78,-4,976,-2,21.7,9.2,-12.3,21.3,9.4,-12.3,5.73,1.94,-9.8,25.9
2015-05-14 00:58:00,0.0,1.90725,0.00041,404.700,0.027,0.3263,0.0027,140.001,45.000,34077.58267,1.91343,406.304,32.064,45.069,45.000,0.00,0.09,-272.72,-272.78,-4,976,-2,21.7,9.3,-12.2,21.3,9.5,-12.1,5.73,1.94,-9.8,25.8
2015-05-14 00:59:00,0.0,1.90727,0.00036,404.714,0.038,0.3261,0.0029,139.999,45.000,34076.85900,1.91345,406.313,32.090,45.069,45.000,0.00,0.09,-272.72,-272.77,-4,976,-2,21.7,9.2,-12.3,21.3,9.5,-12.1,5.73,1.94,-9.8,25.9
2015-05-14 01:00:00,0.0,1.90751,0.00033,404.705,0.038,0.3300,0.0029,139.998,45.000,34075.56552,1.91376,406.326,32.121,45.068,45.000,0.00,0.09,-272.72,-272.78,-5,976,-2,21.7,9.3,-12.1,21.3,9.6,-12.1,5.73,1.94,-9.8,25.9
2015-05-14 01:01:00,0.0,1.90743,0.00036,404.693,0.030,0.3318,0.0024,140.000,45.000,34073.81248,1.91367,406.324,32.123,45.068,45.000,0.00,0.09,-272.72,-272.78,-4,976,-2,21.7,9.4,-12.0,21.3,9.7,-11.9,5.73,1.94,-9.8,25.9
2015-05-14 01:02:00,0.0,1.90708,0.00028,404.658,0.033,0.3323,0.0021,140.003,45.000,34077.64244,1.91340,406.290,32.125,45.068,45.000,0.00,0.09,-272.72,-272.78,-5,976,-2,21.7,9.4,-12.1,21.3,9.7,-11.9,5.73,1.94,-9.8,26.0
2015-05-14 01:03:00,0.0,1.90703,0.00042,404.648,0.043,0.3329,0.0038,139.998,45.000,34077.01103,1.91335,406.283,32.125,45.068,45.000,0.00,0.09,-272.72,-272.78,-4,975,-2,21.7,9.4,-12.0,21.4,9.7,-11.9,5.73,1.94,-9.8,25.9
2015-05-14 01:04:00,0.0,1.90733,0.00032,404.703,0.031,0.3267,0.0019,139.998,45.000,34077.25197,1.91353,406.307,32.127,45.068,45.000,0.00,0.09,-272.72,-272.78,-5,976,-2,21.7,9.2,-12.2,21.3,9.5,-12.1,5.73,1.94,-9.8,25.9
2015-05-14 01:05:00,0.0,1.90710,0.00032,404.657,0.035,0.3333,0.0012,140.001,45.000,34080.23053,1.91338,406.295,32.120,45.068,45.000,0.00,0.09,-272.72,-272.78,-5,976,-2,21.7,9.4,-12.0,21.4,9.6,-12.0,5.73,1.94,-9.8,25.9
2015-05-14 01:06:00,0.0,1.90695,0.00048,404.672,0.021,0.3287,0.0023,139.999,45.000,34081.34151,1.91324,406.287,32.121,45.068,45.000,0.00,0.09,-272.71,-272.78,-4,976,-2,21.7,9.3,-12.2,21.4,9.6,-12.0,5.73,1.95,-9.8,25.9
2015-05-14 01:07:00,0.0,1.90719,0.00037,404.661,0.030,0.3326,0.0033,139.999,45.000,34082.43217,1.91343,406.293,32.121,45.069,45.000,0.00,0.09,-272.72,-272.77,-4,976,-2,21.7,9.4,-12.0,21.4,9.6,-11.9,5.73,1.96,-9.8,25.9
2015-05-14 01:08:00,0.0,1.90705,0.00030,404.665,0.025,0.3323,0.0022,140.001,45.000,34083.28296,1.91335,406.298,32.122,45.069,45.000,0.00,0.09,-272.73,-272.78,-4,976,-2,21.7,9.4,-12.0,21.4,9.7,-11.9,5.73,1.96,-9.8,26.0
2015-05-14 01:09:00,0.0,1.90705,0.00027,404.637,0.035,0.3356,0.0024,139.999,45.000,34081.51543,1.91342,406.285,32.127,45.069,45.000,0.00,0.09,-272.73,-272.78,-5,976,-2,21.7,9.5,-11.9,21.4,9.7,-11.8,5.73,1.96,-9.8,26.0
2015-05-14 01:10:00,0.0,1.90705,0.00027,404.654,0.036,0.3340,0.0024,140.001,45.000,34081.86705,1.91338,406.296,32.129,45.069,45.000,0.00,0.09,-272.72,-272.77,-4,976,-2,21.7,9.5,-11.9,21.4,9.8,-11.8,5.73,1.96,-9.7,26.0
2015-05-14 01:11:00,0.0,1.90707,0.00027,404.653,0.021,0.3349,0.0024,140.001,45.000,34081.80526,1.91342,406.296,32.156,45.069,45.000,0.00,0.09,-272.73,-272.78,-5,976,-2,21.7,9.4,-12.0,21.4,9.7,-11.9,5.73,1.96,-9.8,26.0
2015-05-14 01:12:00,0.0,1.90703,0.00030,404.592,0.048,0.3389,0.0031,139.998,45.000,34081.94777,1.91343,406.258,32.187,45.068,45.000,0.00,0.09,-272.72,-272.77,-4,976,-2,21.7,9.5,-11.8,21.4,9.8,-11.7,5.73,1.96,-9.8,26.0
2015-05-14 01:13:00,0.0,1.90695,0.00039,404.615,0.025,0.3363,0.0023,139.997,45.000,34081.52584,1.91332,406.266,32.192,45.068,45.000,0.00,0.09,-272.72,-272.77,-5,976,-2,21.7,9.5,-11.9,21.4,9.8,-11.7,5.73,1.97,-9.8,25.9
2015-05-14 01:14:00,0.0,1.90704,0.00032,404.646,0.037,0.3334,0.0019,139.998,45.000,34080.98206,1.91336,406.285,32.189,45.068,45.000,0.00,0.09,-272.72,-272.78,-4,976,-2,21.7,9.4,-12.0,21.4,9.7,-11.9,5.73,1.97,-9.7,26.0
2015-05-14 01:15:00,0.0,1.90724,0.00039,404.636,0.038,0.3356,0.0027,140.000,45.000,34079.74506,1.91359,406.283,32.189,45.068,45.000,0.00,0.09,-272.72,-272.78,-5,976,-2,21.7,9.5,-11.9,21.4,9.7,-11.8,5.73,1.97,-9.7,26.0
2015-05-14 01:16:00,0.0,1.90722,0.00035,404.666,0.024,0.3352,0.0026,139.998,45.000,34078.79076,1.91357,406.313,32.188,45.068,45.000,0.00,0.09,-272.72,-272.78,-4,975,-2,21.7,9.4,-11.9,21.4,9.7,-11.8,5.73,1.96,-9.7,26.0
2015-05-14 01:17:00,0.0,1.90724,0.00033,404.639,0.034,0.3348,0.0021,139.999,45.000,34082.21090,1.91360,406.285,32.188,45.069,45.000,0.00,0.09,-272.72,-272.78,-4,976,-2,21.7,9.4,-11.9,21.4,9.7,-11.8,5.73,1.96,-9.7,26.0
2015-05-14 01:18:00,0.0,1.90678,0.00030,404.604,0.032,0.3379,0.0022,139.998,45.000,34082.84812,1.91320,406.264,32.188,45.069,45.000,0.00,0.09,-272.72,-272.78,-4,976,-2,21.7,9.5,-11.8,21.4,9.8,-11.8,5.73,1.95,-9.7,26.0
2015-05-14 01:19:00,0.0,1.90701,0.00060,404.586,0.041,0.3381,0.0032,140.000,45.000,34082.59667,1.91337,406.246,32.188,45.069,45.000,0.00,0.09,-272.72,-272.78,-4,976,-2,21.8,9.5,-11.8,21.4,9.8,-11.7,5.73,1.95,-9.7,26.0
2015-05-14 01:20:00,0.0,1.90738,0.00038,404.619,0.040,0.3337,0.0025,140.001,45.000,34083.46381,1.91372,406.258,32.188,45.069,45.000,0.00,0.09,-272.72,-272.77,-5,976,-2,21.7,9.4,-12.0,21.4,9.7,-11.8,5.73,1.94,-9.7,26.0
2015-05-14 01:21:00,0.0,1.90730,0.00041,404.637,0.031,0.3311,0.0013,140.001,45.000,34082.60465,1.91353,406.263,32.188,45.069,45.000,0.00,0.09,-272.72,-272.79,-4,976,-2,21.7,9.3,-12.1,21.4,9.6,-12.0,5.73,1.95,-9.7,25.9
2015-05-14 01:22:00,0.0,1.90741,0.00041,404.654,0.022,0.3328,0.0018,139.994,45.000,34080.06667,1.91373,406.289,32.200,45.069,45.001,0.00,0.09,-272.72,-272.79,-5,976,-2,21.8,9.3,-12.0,21.4,9.6,-11.9,5.73,1.94,-9.7,26.0
2015-05-14 01:23:00,0.0,1.90697,0.00034,404.615,0.033,0.3337,0.0019,139.999,45.000,34083.67444,1.91335,406.254,32.231,45.069,45.000,0.00,0.09,-272.72,-272.77,-4,976,-2,21.8,9.4,-12.0,21.4,9.7,-11.9,5.73,1.94,-9.7,26.0
2015-05-14 01:24:00,0.0,1.90697,0.00032,404.622,0.030,0.3333,0.0013,140.000,45.000,34087.70430,1.91325,406.258,32.249,45.069,45.000,0.00,0.09,-272.72,-272.78,-4,976,-2,21.8,9.4,-12.0,21.5,9.7,-11.9,5.73,1.93,-9.7,26.0
2015-05-14 01:25:00,0.0,1.90722,0.00030,404.616,0.037,0.3350,0.0014,139.998,45.000,34084.72673,1.91355,406.264,32.251,45.068,45.000,0.00,0.09,-272.73,-272.78,-4,975,-2,21.8,9.4,-11.9,21.5,9.7,-11.8,5.73,1.94,-9.7,26.0
2015-05-14 01:26:00,0.0,1.90714,0.00031,404.624,0.046,0.3328,0.0023,140.001,45.000,34088.42853,1.91346,406.257,32.268,45.069,45.000,0.00,0.09,-272.72,-272.78,-5,976,-3,21.8,9.4,-12.0,21.5,9.7,-11.9,5.73,1.93,-9.7,26.0
2015-05-14 01:27:00,0.0,1.90690,0.00036,404.590,0.043,0.3324,0.0018,140.002,45.000,34088.35680,1.91319,406.224,32.296,45.068,45.000,0.00,0.09,-272.72,-272.77,-4,976,-2,21.8,9.4,-12.0,21.5,9.7,-11.9,5.73,1.94,-9.6,26.1
2015-05-14 01:28:00,0.0,1.90724,0.00035,404.615,0.033,0.3263,0.0025,139.998,45.000,34087.47305,1.91343,406.217,32.310,45.068,45.000,0.00,0.09,-272.73,-272.77,-4,976,-2,21.9,9.2,-12.2,21.5,9.5,-12.1,5.73,1.94,-9.7,26.1
2015-05-14 01:29:00,0.0,1.90738,0.00038,404.646,0.027,0.3246,0.0031,139.997,45.000,34086.20695,1.91353,406.241,32.312,45.068,45.000,0.00,0.09,-272.72,-272.78,-4,976,-2,21.8,9.1,-12.3,21.5,9.4,-12.2,5.73,1.96,-9.7,26.1
2015-05-14 01:30:00,0.0,1.90745,0.00039,404.656,0.028,0.3215,0.0022,139.999,45.000,34086.27597,1.91351,406.232,32.313,45.068,45.000,0.00,0.09,-272.71,-272.78,-4,976,-2,21.8,9.0,-12.4,21.5,9.4,-12.2,5.73,1.95,-9.6,26.1
2015-05-14 01:31:00,0.0,1.90722,0.00040,404.652,0.027,0.3179,0.0017,140.001,45.000,34087.75263,1.91328,406.214,32.313,45.068,45.000,0.00,0.09,-272.72,-272.77,-4,976,-2,21.9,9.0,-12.5,21.5,9.3,-12.4,5.73,1.96,-9.6,26.1
2015-05-14 01:32:00,0.0,1.90736,0.00037,404.684,0.026,0.3151,0.0018,140.001,45.000,34089.42693,1.91331,406.231,32.312,45.068,45.000,0.00,0.09,-272.72,-272.78,-4,977,-3,21.9,8.9,-12.6,21.5,9.2,-12.5,5.73,1.96,-9.6,26.1
2015-05-14 01:33:00,0.0,1.90725,0.00031,404.690,0.032,0.3144,0.0027,140.003,45.000,34093.24317,1.91321,406.232,32.301,45.068,45.000,0.00,0.09,-272.72,-272.78,-4,976,-2,21.9,8.8,-12.7,21.5,9.1,-12.6,5.73,1.97,-9.6,26.1
2015-05-14 01:34:00,0.0,1.90736,0.00040,404.667,0.031,0.3120,0.0022,139.997,45.000,34090.56103,1.91327,406.199,32.310,45.069,45.000,0.00,0.09,-272.72,-272.78,-4,977,-3,21.9,8.8,-12.7,21.5,9.0,-12.7,5.73,1.97,-9.6,26.0
2015-05-14 01:35:00,0.0,1.90745,0.00033,404.683,0.032,0.3064,0.0031,139.996,45.000,34090.05156,1.91322,406.189,32.284,45.069,45.000,0.00,0.09,-272.73,-272.78,-5,976,-3,21.9,8.6,-13.0,21.5,9.0,-12.8,5.73,1.97,-9.6,26.1
2015-05-14 01:36:00,0.0,1.90742,0.00041,404.696,0.033,0.3054,0.0022,140.001,45.000,34091.52931,1.91323,406.193,32.302,45.069,45.000,0.00,0.09,-272.72,-272.77,-4,977,-3,21.9,8.6,-13.0,21.5,8.8,-12.9,5.73,1.97,-9.6,26.1
2015-05-14 01:37:00,0.0,1.90763,0.00040,404.723,0.019,0.3086,0.0015,140.000,45.000,34089.33635,1.91343,406.237,32.311,45.069,45.000,0.00,0.09,-272.72,-272.77,-5,976,-3,21.9,8.7,-12.9,21.5,8.9,-12.8,5.73,1.96,-9.6,26.1
2015-05-14 01:38:00,0.0,1.90736,0.00045,404.701,0.031,0.3111,0.0017,139.999,45.000,34090.84331,1.91328,406.230,32.313,45.068,45.000,0.00,0.09,-272.72,-272.78,-4,976,-3,21.9,8.7,-12.8,21.5,9.0,-12.7,5.73,1.96,-9.6,26.2
2015-05-14 01:39:00,0.0,1.90750,0.00030,404.689,0.031,0.3097,0.0023,139.999,45.000,34089.42624,1.91334,406.209,32.313,45.068,45.000,0.00,0.09,-272.72,-272.78,-5,976,-3,21.9,8.7,-12.8,21.5,9.0,-12.7,5.73,1.95,-9.6,26.2
2015-05-14 01:40:00,0.0,1.90767,0.00023,404.676,0.035,0.3096,0.0018,140.004,45.000,34092.40204,1.91356,406.196,32.315,45.068,45.000,0.00,0.09,-272.72,-272.77,-4,976,-3,21.9,8.7,-12.8,21.5,9.0,-12.7,5.73,1.95,-9.6,26.2
2015-05-14 01:41:00,0.0,1.90753,0.00021,404.662,0.027,0.3140,0.0022,139.994,45.000,34089.51115,1.91346,406.204,32.351,45.068,45.000,0.00,0.09,-272.72,-272.78,-5,976,-3,21.9,8.8,-12.7,21.5,9.1,-12.6,5.73,1.94,-9.6,26.2
2015-05-14 01:42:00,0.0,1.90725,0.00042,404.685,0.030,0.3144,0.0013,140.000,45.000,34093.37046,1.91323,406.227,32.353,45.068,45.000,0.00,0.09,-272.72,-272.78,-4,976,-3,21.9,8.8,-12.7,21.5,9.1,-12.5,5.73,1.94,-9.6,26.2
2015-05-14 01:43:00,0.0,1.90741,0.00022,404.704,0.045,0.3085,0.0029,139.999,45.000,34093.98688,1.91324,406.220,32.350,45.068,45.000,0.00,0.09,-272.72,-272.77,-5,976,-3,21.9,8.7,-12.9,21.5,9.0,-12.7,5.73,1.93,-9.6,26.2
2015-05-14 01:44:00,0.0,1.90750,0.00027,404.702,0.031,0.3118,0.0012,140.001,45.000,34092.58651,1.91339,406.232,32.355,45.068,45.000,0.00,0.09,-272.72,-272.77,-4,976,-3,21.9,8.7,-12.8,21.5,9.0,-12.7,5.73,1.93,-9.6,26.1
2015-05-14 01:45:00,0.0,1.90753,0.00027,404.707,0.029,0.3095,0.0021,139.998,45.000,34091.42148,1.91338,406.227,32.323,45.068,45.000,0.00,0.09,-272.72,-272.78,-5,977,-3,21.9,8.7,-12.8,21.6,9.0,-12.7,5.73,1.93,-9.6,26.1
2015-05-14 01:46:00,0.0,1.90724,0.00043,404.715,0.034,0.3069,0.0032,140.001,45.000,34095.07019,1.91307,406.220,32.333,45.068,45.000,0.00,0.09,-272.72,-272.78,-4,976,-3,21.9,8.6,-12.9,21.6,8.9,-12.8,5.73,1.94,-9.6,26.1